2014 DX110

Initial reported observation by Pan-STARRS 1, Haleakala on 2014-02-28.
(Discoverer will be defined when the object is numbered. See this note on how discoverers are determined.)

Orbit

Orbit type: Apollo
Near-Earth Object
One opposition object seen prior.

Note: WebGL enabled browser required.

epoch2019-04-27.0
epoch JD2458600.5
perihelion date2020-10-21.10349
perihelion JD2459143.60349
argument of perihelion (°)56.57362
ascending node (°)163.81152
inclination (°)5.73071
eccentricity0.6243622
perihelion distance (AU)0.8263872
Tisserand w.r.t. Jupiter3.4
ΔV w.r.t. Earth (km/sec)7.0
semimajor axis (AU)2.1999572
mean anomaly (°)195.95421
mean daily motion (°/day)0.30205250
aphelion distance (AU)3.574
period (years)3.26
P-vector [x]-0.76054339
P-vector [y]-0.62393150
P-vector [z]-0.17967539
Q-vector [x]0.64869003
Q-vector [y]-0.71830602
Q-vector [z]-0.25147108
absolute magnitude25.7
phase slope0.15
uncertainty5
referenceMPO 286765
observations used61
oppositions1
arc length (days)5
first opposition used2014
last opposition used2014
residual rms (arc-secs)0.34
perturbers coarse indicatorM-v
perturbers precise indicator003Eh
first observation date used2014-02-28.0
last observation date used2014-03-05.0
computer nameMPCADO
Minimum Orbit Intersection Distances (in AU)
for orbit epoch: 2458600.5, reference: MPO286765
Mercury0.38071
Venus0.10902
Earth0.00184
Mars0.11414
Jupiter1.42258
Saturn5.67917
Uranus16.0693
Neptune26.3292

Observations

63 total observations over interval: 2014 02 28.36199 – 2014 03 05.823361
These data are available for download (format description).

Date (UT) J2000 RA J2000 Dec Magn Location Ref
2014 02 28.36199 09 34 13.259 +02 12 58.11 19.9 w F51 – Pan-STARRS 1, Haleakala MPS 504218
2014 02 28.37465 09 34 11.900 +02 13 20.64 19.9 w F51 – Pan-STARRS 1, Haleakala MPS 504218
2014 02 28.38633 09 34 10.633 +02 13 41.46 20.0 w F51 – Pan-STARRS 1, Haleakala MPS 504218
2014 02 28.39801 09 34 09.361 +02 14 02.39 20.2 w F51 – Pan-STARRS 1, Haleakala MPS 504218
2014 03 01.022397 09 33 36.98 +02 38 13.5 20.1 V K93 – Sutherland-LCO C MPS 504218
2014 03 01.023432 09 33 36.90 +02 38 16.1 20.2 V K93 – Sutherland-LCO C MPS 504218
2014 03 01.024460 09 33 36.79 +02 38 18.1 20.4 V K93 – Sutherland-LCO C MPS 504218
2014 03 01.025491 09 33 36.70 +02 38 20.7 20.0 V K93 – Sutherland-LCO C MPS 504218
2014 03 01.026519 09 33 36.59 +02 38 22.9 19.9 V K93 – Sutherland-LCO C MPS 504218
2014 03 01.028590 09 33 36.41 +02 38 27.9 19.7 V K93 – Sutherland-LCO C MPS 504218
2014 03 01.029635 09 33 36.28 +02 38 30.2 19.6 V K93 – Sutherland-LCO C MPS 504218
2014 03 01.030662 09 33 36.18 +02 38 32.4 20.2 V K93 – Sutherland-LCO C MPS 504218
2014 03 01.031694 09 33 36.09 +02 38 34.8 19.9 V K93 – Sutherland-LCO C MPS 504218
2014 03 01.032723 09 33 35.98 +02 38 37.3 19.9 V K93 – Sutherland-LCO C MPS 504218
2014 03 02.02430 09 32 48.82 +03 21 39.3 19.5 R J95 – Great Shefford MPS 504218
2014 03 02.03580 09 32 47.32 +03 22 20.4 19.1 R J95 – Great Shefford MPS 504218
2014 03 03.82435 09 29 45.16 +06 45 45.2   J95 – Great Shefford MPS 504218
2014 03 03.82810 09 29 44.05 +06 46 33.5   J95 – Great Shefford MPS 504218
2014 03 03.83195 09 29 42.91 +06 47 23.1 17.9 R J95 – Great Shefford MPS 504218
2014 03 03.887271 09 29 25.16 +06 59 42.3 17.1 R J69 – North Observatory, Clanfield MPS 504218
2014 03 03.894855 09 29 22.54 +07 01 25.7 17.5 R J69 – North Observatory, Clanfield MPS 504218
2014 03 03.902439 09 29 19.89 +07 03 10.3 17.5 R J69 – North Observatory, Clanfield MPS 504218
2014 03 04.06691 09 28 46.82 +07 45 14.9   I15 – Wishing Star Observatory, Barrington MPS 504218
2014 03 04.06816 09 28 46.33 +07 45 35.3   I15 – Wishing Star Observatory, Barrington MPS 504218
2014 03 04.06941 09 28 45.80 +07 45 56.1   I15 – Wishing Star Observatory, Barrington MPS 504218
2014 03 04.13797 09 28 36.77 +08 06 37.7 17.6 R 291 – LPL/Spacewatch II MPS 504218
2014 03 04.13814 09 28 36.66 +08 06 41.1 17.1 R 291 – LPL/Spacewatch II MPS 504218
2014 03 04.13832 09 28 36.59 +08 06 44.0 17.7 R 291 – LPL/Spacewatch II MPS 504218
2014 03 04.84925 09 22 56.54 +13 50 51.0 15.7 R J69 – North Observatory, Clanfield MPS 504218
2014 03 04.85137 09 22 54.39 +13 52 35.7 15.7 R J69 – North Observatory, Clanfield MPS 504218
2014 03 04.85308 09 22 45.53 +13 56 28.0 16.0 R 470 – Ceccano MPS 504218
2014 03 04.85372 09 22 44.79 +13 57 00.3 16.1 R 470 – Ceccano MPS 504218
2014 03 04.85437 09 22 44.09 +13 57 31.4 16.0 R 470 – Ceccano MPS 504218
2014 03 04.85505 09 22 50.65 +13 55 36.9 15.7 R J69 – North Observatory, Clanfield MPS 504218
2014 03 04.85663 09 22 49.04 +13 56 54.0 15.9 R J69 – North Observatory, Clanfield MPS 504218
2014 03 04.89149 09 22 11.34 +14 26 39.2 15.8 R J69 – North Observatory, Clanfield MPS 504218
2014 03 04.89244 09 22 10.21 +14 27 30.0 15.4 R J69 – North Observatory, Clanfield MPS 504218
2014 03 05.052503 09 18 35.42 +17 11 32.5 16.2 R J95 – Great Shefford MPS 504218
2014 03 05.056045 09 18 29.94 +17 15 47.4 16.3 R J95 – Great Shefford MPS 504218
2014 03 05.059619 09 18 24.37 +17 20 06.4 16.4 R J95 – Great Shefford MPS 504218
2014 03 05.17374 09 16 44.20 +20 05 12.1 15.8   718 – Tooele MPS 504218
2014 03 05.17648 09 16 38.41 +20 09 41.2 15.8   718 – Tooele MPS 504218
2014 03 05.17785 09 16 35.52 +20 11 55.9 15.8   718 – Tooele MPS 504218
2014 03 05.18140 09 16 27.95 +20 17 48.3 15.8   718 – Tooele MPS 504218
2014 03 05.205106 09 15 01.77 +20 58 54.9 16.1 V H21 – Astronomical Research Observatory, Westfield MPS 504218
2014 03 05.206527 09 14 58.36 +21 01 23.7 16.0 V H21 – Astronomical Research Observatory, Westfield MPS 504218
2014 03 05.207946 09 14 54.93 +21 03 52.9 16.0 V H21 – Astronomical Research Observatory, Westfield MPS 504218
2014 03 05.209368 09 14 51.49 +21 06 22.8 16.1 V H21 – Astronomical Research Observatory, Westfield MPS 504218
2014 03 05.210552 09 14 48.61 +21 08 27.9 16.0 V H21 – Astronomical Research Observatory, Westfield MPS 504218
2014 03 05.211965 09 14 45.16 +21 10 58.0 16.1 V H21 – Astronomical Research Observatory, Westfield MPS 504218
2014 03 05.213373 09 14 41.71 +21 13 28.0 16.0 V H21 – Astronomical Research Observatory, Westfield MPS 504218
2014 03 05.214782 09 14 38.26 +21 15 58.4 16.3 V H21 – Astronomical Research Observatory, Westfield MPS 504218
2014 03 05.216425 09 14 34.19 +21 18 54.7 15.9 V H21 – Astronomical Research Observatory, Westfield MPS 504218
2014 03 05.540353 08 53 39.24 +38 13 39.6 15.7 R Q79 – Samford Valley Observatory MPS 505479
2014 03 05.556932 08 51 08.91 +39 37 00.8 15.4 R Q79 – Samford Valley Observatory MPS 505479
2014 03 05.809379 06 44 47.22 +71 32 09.6 15.4 R J95 – Great Shefford MPS 504218
2014 03 05.811027 06 41 42.44 +71 46 31.4 15.7 R J95 – Great Shefford MPS 504218
2014 03 05.813309 06 37 17.79 +72 06 09.3 15.3 R J95 – Great Shefford MPS 504218
2014 03 05.815775 06 32 20.01 +72 27 00.9 16.0 R J95 – Great Shefford MPS 504218
2014 03 05.818230 06 27 11.02 +72 47 22.0 14.8 R J95 – Great Shefford MPS 504218
2014 03 05.820843 06 21 27.71 +73 08 31.7 15.9 R J95 – Great Shefford MPS 504218
2014 03 05.822083 06 18 39.69 +73 18 22.5 15.2 R J95 – Great Shefford MPS 504218
2014 03 05.823361 06 15 42.66 +73 28 23.9 15.1 R J95 – Great Shefford MPS 504218